SL-14 R/B, 23005

Orbit data source: Space-Track

SL-14 R/B, 23005 is space debris in LEO originally from a launch on Sat, 12 Feb 1994 UTC launched from the Plesetsk Missile And Space Complex (PKMTR). Debris objects in space refer to the collection of defunct objects orbiting the Earth. Examples of debris include non-operational satellites, rocket bodies, and fragments generated from explosions, collisions, or faulty payload assembly.

Loading next visibility...
Identifier
23005, 1994-011G
Orbit
LEO
Country
Flag of CISCIS
Related business
Manufacturer
Yuzhnoe
Mission
Spacecraft
Bus & Motor
S5M, Unknown motor
Mass
1,600 kg wet, 1,600 kg dry
Launch date (UTC)
1994-02-12 (32 years ago)
Launch vehicle
Unknown
Launch site
Plesetsk Missile And Space Complex (PKMTR)
Object type
Payload
Rocket body
Debris
Shape & HBR
Cyl, 1.4 m
Radar Cross Section
7.351 m², Large (>1 m²)

Expand to show TLE details & history
Last TLE update: 4 hours ago

TLE from 4 hours ago
0 SL-14 R/B
1 23005U 94011G   26127.84145829  .00000035  00000-0  15252-3 0  9990
2 23005  82.5750  88.3005 0040594 202.6592 217.8818 12.55223575476695
Epoch: 2026-05-07T20:11Z
TLE epoch observation values (Epoch: 2026-05-07T20:11:41.996Z)
Latitude
59.51416°
Longitude
-67.58072°
Altitude
1,477.884 km
Speed
7.118 km/s
True Right ascension
06h 44m 06s
True Declination
59° 22' 39"
Sunlit
Object was in daylight at epoch
Visualization orbit readout
Latitude
Unknown
Longitude
Unknown
Altitude
Unknown
Speed
Unknown
Apparent Right ascension
Unknown
Apparent Declination
Unknown
Sunlit
N/A
Visualization observer readout
Local Sidereal Time
08:07:00
Azimuth
Unknown
Elevation
Unknown
Doppler factor
Unknown
Orbital elements
Apogee altitude
1,471.79 km
Perigee altitude
1,408.316 km
Semi-major axis
7,818.19 km
Eccentricity
0.00406
Inclination
82.575°
RAAN
88.3005°
Arg. of periapsis
202.6592°
True anomaly
217.59731°
Mean anomaly
217.8818°
Eccentric anomaly
217.73944°
Mean motion
3.13967 °/min
Orbital period
114.66 mins
BSTAR
0.00015252
Loading maneuver chart data...
Computing Atmospheric mass density...
Loading historical data...
Loading historical data...
Loading historical data...
Loading historical data...
Loading historical data...
Loading historical data...
Loading historical data...

Documentation

Showing up to 5 results
|